Notices

What's New in latest Release from April 7th, 2021:

- Updated Glossary, including Speed of Maximum Gust, and Total Hourly Precipitation

- Updated national and regional climate services offices contacts and prices information

- Addition of station inventory lists for 1981-2010, 1971-2000, and 1961-1990 Normals.

If you haven't already, please take our survey and provide feedback about our website: https://eccc.sondage-survey.ca/f/LanguageSelection.aspx?s=442ca660-fcf1-47c0-95a9-59707d6fd709

Hourly Data Report for November 22, 2006

TORONTO CITY
ONTARIO

43°40'00.000" N
79°24'00.000" W
112.50 m
6158355
71508
XTO

Download Data

Hourly Data (November 2006)
Hourly Data Report for November 22, 2006
TIME
LST
Temp Definition
°C
Dew Point Definition
°C
Rel Hum Definition
%
Precip. Amount Definition
mm

Wind Dir Definition
10's deg

Wind Spd Definition
km/h
Visibility Definition
km
Stn Press Definition
kPa
Hmdx Definition


Wind Chill Definition


Weather Definition


00:00 3.6 1.5 86   LegendMM LegendMM   101.80     LegendNANA
01:00 2.5 0.8 89   LegendMM LegendMM   101.77     LegendNANA
02:00 2.3 0.9 90   LegendMM LegendMM   101.77     LegendNANA
03:00 2.0 0.7 91   LegendMM LegendMM   101.84     LegendNANA
04:00 2.1 0.9 92   LegendMM LegendMM   101.81     LegendNANA
05:00 2.4 1.0 90   LegendMM LegendMM   101.84     LegendNANA
06:00 1.9 1.0 94   LegendMM LegendMM   101.83     LegendNANA
07:00 2.8 2.0 94   LegendMM LegendMM   101.84     LegendNANA
08:00 2.6 1.4 92   LegendMM LegendMM   101.82     LegendNANA
09:00 4.0 2.5 90   LegendMM LegendMM   101.81     LegendNANA
10:00 5.2 2.4 82   LegendMM LegendMM   101.83     LegendNANA
11:00 5.8 2.1 77   LegendMM LegendMM   101.84     LegendNANA
12:00 7.1 2.7 74   LegendMM LegendMM   101.71     LegendNANA
13:00 7.8 1.2 63   LegendMM LegendMM   101.64     LegendNANA
14:00 7.6 -0.9 55   LegendMM LegendMM   101.56     LegendNANA
15:00 6.3 2.6 77   LegendMM LegendMM   101.56     LegendNANA
16:00 5.6 2.6 81   LegendMM LegendMM   101.63     LegendNANA
17:00 5.2 2.6 83   LegendMM LegendMM   101.65     LegendNANA
18:00 5.0 2.9 86   LegendMM LegendMM   101.65     LegendNANA
19:00 4.8 3.1 89   LegendMM LegendMM   101.62     LegendNANA
20:00 5.0 3.2 88   LegendMM LegendMM   101.61     LegendNANA
21:00 4.6 3.1 90   LegendMM LegendMM   101.59     LegendNANA
22:00 4.2 3.0 92   LegendMM LegendMM   101.53     LegendNANA
23:00 3.7 2.4 91   LegendMM LegendMM   101.47     LegendNANA

Notes on Data Quality.

Legend

  • E = Estimated
  • M = Missing
  • NA = Not Available*
  • [empty] = Indicates an unobserved value
Date modified: